Wind_Speed
75 79 82 83 79 76 73 73 73 71 68 66 67 67 67 56 57 57 54 54 56 55 54 53 50 50 49 48 47 47 46 43 44 43 42 42 43 44 42 41 42 45 45 44
66 77 77 72 74 74 75 74 76 72 69 68 66 72 71 67 60 58 58 56 57 57 57 54 51 50 50 50 49 47 46 45 46 45 46 45 45 45 45 43 44 45 43 44
61 64 58 65 67 66 73 75 75 73 65 61 71 68 69 72 66 62 59 58 59 60 59 54 51 51 52 50 49 51 50 48 48 48 48 48 47 48 49 46 46 45 45 45
56 52 59 65 64 64 69 71 69 66 63 68 66 77 67 65 71 68 63 63 61 60 61 59 55 52 51 52 52 54 54 51 51 50 50 50 50 49 49 48 48 46 46 44
47 47 56 61 64 62 61 57 64 65 64 62 69 74 77 63 62 67 66 64 64 61 61 60 57 54 53 54 54 55 54 52 51 51 51 51 51 51 49 50 48 46 45 45
56 40 43 49 51 58 55 57 56 59 60 66 71 69 84 76 57 42 58 67 68 66 64 64 61 58 57 56 56 54 53 54 53 51 53 52 52 53 53 51 48 45 44 44
39 54 51 41 38 49 51 57 58 60 59 67 71 67 82 76 69 64 39 40 47 51 56 72 67 64 63 62 58 57 56 55 55 56 57 56 55 53 51 50 47 45 44 42
35 36 44 58 50 49 51 61 58 55 56 67 66 68 78 70 68 66 67 63 51 48 44 51 66 71 65 64 62 59 57 57 57 56 56 56 55 53 51 49 46 45 44 41
25 40 31 48 51 44 46 41 51 60 56 62 61 64 68 72 71 64 60 60 61 62 59 50 48 62 71 66 64 63 60 58 57 56 55 55 54 53 50 47 46 45 43 41
16 26 30 33 51 60 60 55 58 62 61 59 57 58 59 69 68 65 63 60 55 57 51 55 47 44 52 59 60 62 63 58 57 55 54 55 53 51 48 48 46 45 42 40
12 19 28 30 37 41 44 46 46 47 53 56 57 54 42 51 58 60 52 50 49 46 47 52 44 47 44 49 53 58 59 57 54 54 55 54 53 50 49 48 46 44 41 41
9 12 14 29 30 30 31 29 32 39 41 48 48 48 38 39 39 38 43 45 46 47 50 48 45 46 44 49 53 55 55 54 55 55 54 55 53 51 50 47 46 43 42 42
11 7 14 18 30 37 32 30 30 36 43 39 44 50 49 40 38 34 34 38 28 32 36 38 42 46 44 47 53 57 57 57 57 56 57 56 53 52 49 48 46 43 43 43
18 14 10 12 18 14 18 29 33 25 31 41 37 29 34 44 41 38 39 40 33 30 34 34 35 38 41 46 49 55 60 61 60 60 59 57 54 49 49 47 45 45 45 45
10 18 14 14 19 16 13 11 18 24 29 32 32 37 36 38 54 53 49 48 38 31 35 31 29 33 36 38 42 46 56 61 62 61 59 54 51 49 46 46 47 46 46 45
17 12 19 15 17 18 20 22 17 20 21 22 29 51 43 42 36 47 48 51 45 41 36 37 42 41 37 35 40 44 50 52 56 59 58 53 50 46 46 47 47 46 45 45
13 16 15 18 11 13 15 19 20 16 15 19 23 27 41 43 42 39 38 42 51 46 40 40 40 39 37 38 39 38 40 47 51 51 51 49 46 49 48 47 47 46 45 46
14 17 19 14 15 14 14 13 16 19 19 17 11 14 29 37 39 40 39 44 45 46 42 42 40 40 43 44 45 44 45 47 49 50 50 53 53 51 48 46 46 45 45 45
9 19 17 16 13 10 12 14 14 15 15 15 18 22 17 20 33 38 37 41 42 45 44 43 44 44 43 44 44 44 47 47 48 50 52 54 55 53 48 46 46 46 46 45
8 16 18 20 15 15 11 10 14 19 20 22 21 20 19 22 20 22 26 28 36 42 46 48 47 47 44 43 43 45 47 48 46 50 51 53 55 51 48 46 46 46 46 47
9 6 16 18 18 19 16 16 14 14 19 19 19 21 21 26 24 21 22 28 34 35 40 46 46 44 42 45 47 45 49 50 52 50 52 53 51 49 48 45 44 44 46 46
9 9 11 15 18 20 18 16 15 14 18 21 21 23 25 26 26 25 24 23 26 31 33 38 39 38 40 44 45 45 49 51 55 53 52 49 47 48 44 43 44 43 45 46
6 9 9 10 15 17 18 15 14 16 17 19 19 19 20 22 26 25 27 24 26 32 34 35 39 47 49 47 48 51 49 49 48 45 43 40 39 39 40 41 42 43 46 48
3 3 7 10 10 12 12 13 15 17 16 18 19 19 21 22 23 26 28 27 26 26 33 37 39 42 45 47 46 44 41 38 36 36 38 39 39 39 41 43 45 46 48 50
4 4 6 9 10 13 15 16 17 16 18 19 17 17 21 20 20 23 25 28 27 26 27 27 29 33 35 36 36 34 33 34 38 41 41 41 42 42 44 46 47 48 50 49
8 10 11 12 13 13 14 17 18 19 19 19 19 18 18 16 17 19 21 22 24 24 26 28 30 32 33 34 35 37 39 41 41 41 41 43 45 48 48 48 49 49 49 50
Wind_Direction
246 244 239 240 242 245 249 249 247 244 247 246 244 242 245 239 236 237 235 233 238 241 242 243 243 244 246 250 253 254 253 253 256 257 259 260 264 266 270 274 278 279 279 279
242 243 243 241 240 242 243 246 245 245 244 248 245 243 244 242 236 237 238 234 234 241 244 242 245 245 246 247 249 251 254 255 256 257 259 261 264 267 270 274 277 278 275 277
247 245 242 242 240 241 242 245 243 247 247 249 249 243 244 246 240 238 239 240 238 238 242 245 245 247 249 250 251 250 252 258 260 261 262 264 266 267 272 276 280 277 275 276
251 243 238 236 237 239 241 242 248 250 251 245 247 249 242 242 242 236 235 239 241 243 244 244 245 247 250 252 253 254 257 259 261 263 264 266 266 269 272 277 276 273 273 275
227 243 243 238 238 239 243 242 247 249 251 252 248 248 239 240 244 240 236 237 240 241 244 247 246 247 248 250 252 253 255 259 262 262 264 265 267 268 272 275 271 271 271 275
227 224 239 243 239 237 238 237 239 243 245 246 248 250 242 244 240 246 241 239 243 244 245 243 244 245 246 247 249 253 256 258 260 261 262 264 265 269 272 270 267 267 270 274
241 228 226 214 221 226 231 233 239 241 242 246 247 251 248 246 243 242 245 247 247 250 254 250 246 244 244 246 247 249 252 256 258 260 262 263 266 267 266 265 264 265 269 271
238 231 233 227 234 244 244 239 238 240 248 251 251 254 251 252 251 249 250 249 251 259 266 265 255 250 248 248 249 249 251 254 256 257 261 263 263 261 261 260 260 263 268 270
244 234 234 230 231 225 221 232 239 245 246 254 254 258 255 249 251 250 252 255 257 257 259 270 256 255 251 251 251 251 255 254 255 257 259 259 258 257 256 256 258 263 265 267
238 246 235 230 222 227 233 236 239 240 247 248 256 259 264 249 253 256 254 254 256 258 259 262 256 256 254 250 250 250 251 251 251 254 256 255 253 253 253 255 259 261 263 264
234 240 229 226 224 226 231 236 239 242 242 244 247 249 259 258 255 258 261 257 253 250 244 255 257 258 258 248 244 243 244 245 248 252 250 248 249 250 252 255 258 260 260 262
212 213 216 230 237 233 236 239 242 242 243 233 242 248 250 252 248 244 252 251 249 248 247 249 251 257 258 249 242 240 240 242 245 245 244 245 247 249 252 255 257 258 259 262
200 200 232 226 234 244 244 246 245 241 239 243 249 253 251 248 242 239 251 241 216 221 222 231 238 247 251 247 242 243 242 242 241 241 241 243 245 249 253 255 256 256 258 261
218 210 218 203 199 213 236 248 249 237 237 238 257 245 242 238 242 250 243 235 226 229 222 218 223 229 237 238 241 243 240 239 238 239 240 241 244 247 251 253 254 256 259 262
240 228 210 211 215 226 229 229 226 236 249 249 253 260 258 240 240 248 250 250 255 242 243 236 235 238 236 234 236 244 245 243 243 242 241 242 244 246 250 253 255 257 260 260
244 215 227 241 242 238 245 263 252 225 223 239 241 245 253 249 245 245 249 244 250 267 247 245 260 250 246 241 239 241 246 247 245 244 244 244 245 246 251 254 256 258 258 259
229 241 219 211 217 224 242 251 261 239 230 241 245 239 233 244 249 239 241 250 253 256 257 247 243 245 246 243 250 252 252 252 251 249 250 250 249 248 251 254 256 256 258 261
215 234 241 230 243 238 248 248 236 245 239 232 237 266 255 245 239 244 239 234 248 248 248 251 246 239 239 239 241 246 250 254 251 251 252 253 252 251 251 252 253 256 258 259
227 215 226 239 231 240 243 251 265 259 251 272 285 292 277 258 247 240 244 240 240 245 245 245 247 247 247 248 251 253 252 254 256 251 253 253 250 249 248 250 252 255 256 257
228 212 212 225 252 266 263 269 261 270 269 272 269 269 272 261 248 241 244 248 246 245 243 244 245 246 251 255 258 259 261 260 255 255 257 257 253 249 249 250 251 253 255 257
219 205 211 222 235 252 262 273 260 251 251 248 252 252 252 255 255 256 257 253 244 246 245 240 233 241 247 253 253 258 258 257 256 262 261 257 252 251 250 251 253 256 257 260
211 219 224 221 226 235 245 256 255 263 252 249 251 248 247 252 256 254 258 257 257 253 243 239 241 250 251 252 256 258 260 260 262 260 255 251 254 252 250 251 253 255 260 263
195 213 234 240 240 242 242 243 263 270 262 260 260 258 255 252 254 257 255 255 256 254 246 238 239 240 245 247 251 257 257 254 252 248 247 250 254 256 259 261 262 263 264 266
217 242 238 237 243 246 252 257 260 268 280 273 270 266 259 257 256 254 255 254 250 248 241 237 236 239 242 247 247 249 244 244 249 257 261 264 265 266 267 266 265 265 265 268
314 297 275 267 264 263 262 263 266 270 276 280 280 276 269 266 264 261 259 257 259 260 259 258 251 246 244 242 244 252 258 259 259 263 268 269 268 265 264 265 267 269 269 269
300 298 297 292 284 279 277 272 267 267 266 267 268 269 273 277 273 267 265 264 266 266 268 271 273 272 270 268 264 262 262 262 264 265 264 264 265 267 268 267 266 266 266 266
Height
5550 5546 5551 5574 5583 5591 5591 5592 5598 5609 5615 5619 5625 5628 5635 5647 5650 5653 5659 5667 5670 5673 5680 5683 5686 5691 5697 5701 5703 5706 5708 5709 5711 5712 5714 5714 5716 5717 5718 5717 5717 5716 5717 5716
5522 5520 5549 5563 5563 5566 5570 5572 5581 5591 5598 5600 5608 5611 5616 5628 5638 5643 5647 5653 5659 5662 5666 5673 5677 5679 5682 5688 5692 5695 5698 5698 5700 5701 5702 5703 5705 5706 5706 5706 5705 5705 5704 5704
5506 5518 5541 5539 5543 5547 5553 5558 5572 5577 5587 5585 5585 5591 5603 5610 5624 5631 5639 5644 5648 5651 5655 5661 5666 5668 5669 5674 5679 5683 5685 5687 5688 5689 5691 5693 5694 5694 5696 5696 5696 5695 5694 5693
5495 5511 5513 5519 5523 5534 5537 5556 5560 5563 5563 5568 5571 5566 5583 5593 5598 5611 5625 5628 5634 5639 5643 5649 5655 5660 5662 5663 5666 5669 5673 5675 5677 5679 5680 5681 5681 5683 5684 5684 5684 5683 5683 5682
5483 5493 5496 5500 5512 5523 5527 5542 5539 5546 5547 5550 5552 5552 5571 5577 5586 5603 5610 5614 5619 5624 5628 5632 5640 5645 5648 5650 5653 5655 5658 5662 5665 5667 5668 5669 5670 5671 5672 5672 5672 5672 5671 5671
5469 5476 5483 5491 5503 5506 5520 5521 5524 5527 5530 5523 5539 5540 5550 5565 5585 5590 5594 5600 5604 5610 5614 5617 5622 5627 5631 5635 5638 5642 5646 5648 5650 5653 5654 5656 5657 5659 5660 5660 5660 5660 5660 5659
5463 5467 5474 5476 5483 5490 5499 5506 5508 5510 5509 5506 5530 5522 5538 5555 5574 5580 5583 5586 5590 5591 5596 5600 5607 5612 5616 5621 5625 5629 5632 5634 5637 5639 5641 5642 5644 5645 5646 5648 5648 5648 5648 5647
5446 5453 5461 5471 5475 5483 5489 5496 5496 5497 5498 5506 5514 5503 5521 5549 5554 5562 5569 5577 5578 5579 5583 5587 5592 5596 5602 5607 5610 5614 5617 5620 5623 5625 5627 5629 5630 5631 5633 5634 5635 5636 5636 5636
5436 5442 5450 5456 5467 5472 5478 5479 5491 5488 5492 5491 5494 5497 5512 5532 5535 5548 5557 5558 5563 5568 5572 5576 5580 5582 5587 5591 5596 5600 5603 5606 5609 5611 5613 5615 5616 5618 5619 5621 5622 5623 5623 5623
5431 5435 5441 5446 5450 5454 5459 5475 5473 5474 5477 5480 5484 5489 5497 5519 5528 5531 5537 5543 5545 5551 5558 5562 5567 5570 5570 5574 5580 5584 5589 5591 5594 5597 5599 5601 5602 5604 5606 5608 5609 5611 5611 5611
5427 5431 5435 5437 5441 5449 5455 5458 5461 5466 5469 5473 5478 5479 5493 5506 5514 5514 5519 5525 5531 5537 5543 5547 5552 5557 5558 5559 5562 5567 5571 5575 5579 5582 5585 5587 5589 5591 5593 5595 5597 5598 5598 5598
5420 5423 5427 5432 5439 5444 5448 5452 5455 5457 5464 5466 5467 5471 5487 5495 5500 5502 5504 5508 5516 5523 5528 5532 5538 5542 5545 5546 5550 5553 5557 5561 5564 5567 5570 5573 5575 5577 5580 5582 5584 5585 5585 5586
5417 5422 5424 5428 5433 5435 5439 5445 5448 5452 5455 5458 5463 5469 5480 5486 5488 5491 5494 5497 5503 5508 5512 5516 5522 5528 5532 5533 5536 5540 5543 5546 5550 5553 5555 5558 5561 5564 5566 5569 5571 5571 5573 5573
5412 5417 5421 5424 5427 5430 5433 5437 5440 5444 5447 5453 5454 5463 5468 5473 5476 5480 5483 5487 5491 5495 5499 5503 5508 5514 5517 5520 5523 5527 5530 5533 5535 5537 5540 5543 5546 5549 5553 5555 5557 5559 5560 5561
5411 5414 5417 5420 5424 5425 5428 5431 5433 5436 5441 5443 5448 5451 5456 5461 5466 5471 5474 5476 5480 5487 5489 5493 5496 5501 5504 5508 5511 5514 5518 5521 5523 5525 5527 5529 5532 5536 5539 5542 5544 5546 5547 5548
5406 5410 5413 5417 5419 5421 5425 5426 5428 5431 5433 5437 5438 5443 5447 5453 5456 5459 5463 5467 5471 5474 5479 5482 5485 5490 5493 5495 5498 5501 5505 5507 5509 5512 5514 5516 5519 5522 5526 5529 5531 5533 5534 5535
5403 5407 5411 5415 5415 5418 5421 5421 5423 5425 5427 5430 5431 5433 5437 5440 5444 5449 5453 5456 5461 5465 5471 5474 5475 5478 5481 5484 5486 5488 5492 5494 5496 5498 5501 5504 5507 5510 5513 5515 5518 5519 5520 5522
5402 5405 5408 5411 5413 5415 5416 5417 5419 5420 5422 5423 5425 5427 5429 5431 5434 5438 5441 5445 5449 5455 5459 5463 5465 5468 5470 5472 5475 5477 5480 5483 5485 5487 5489 5491 5494 5497 5499 5501 5504 5505 5507 5508
5398 5401 5404 5407 5409 5411 5412 5414 5415 5415 5417 5418 5419 5421 5424 5425 5426 5429 5431 5435 5439 5443 5446 5449 5453 5456 5458 5461 5465 5468 5469 5471 5473 5475 5478 5479 5482 5484 5485 5487 5489 5492 5494 5495
5395 5397 5400 5403 5405 5406 5408 5410 5411 5411 5412 5413 5414 5416 5418 5421 5421 5422 5425 5427 5430 5434 5436 5439 5443 5447 5450 5453 5455 5457 5458 5460 5463 5466 5467 5468 5469 5470 5472 5473 5475 5478 5480 5481
5392 5394 5397 5399 5402 5403 5404 5405 5407 5408 5411 5408 5409 5410 5412 5415 5416 5416 5417 5420 5423 5425 5428 5430 5433 5437 5440 5442 5444 5446 5448 5450 5452 5453 5453 5454 5455 5457 5458 5460 5462 5465 5467 5467
5391 5392 5394 5396 5397 5400 5400 5402 5404 5404 5403 5404 5405 5407 5407 5408 5409 5410 5412 5413 5414 5416 5417 5420 5424 5426 5428 5431 5433 5434 5436 5438 5439 5439 5440 5442 5444 5445 5445 5446 5449 5449 5452 5453
5390 5391 5392 5394 5394 5395 5396 5397 5398 5398 5399 5399 5399 5401 5401 5402 5403 5403 5406 5407 5408 5409 5410 5411 5413 5416 5418 5420 5421 5423 5424 5425 5426 5427 5429 5430 5430 5431 5432 5434 5435 5436 5437 5438
5387 5387 5388 5390 5391 5391 5391 5391 5393 5394 5394 5395 5395 5396 5396 5396 5396 5398 5398 5398 5400 5402 5403 5404 5404 5406 5408 5409 5410 5411 5412 5413 5414 5415 5417 5417 5417 5418 5419 5421 5422 5422 5423 5423
5386 5386 5386 5386 5387 5387 5387 5387 5388 5388 5388 5389 5388 5388 5389 5388 5388 5389 5389 5390 5391 5392 5393 5394 5396 5396 5397 5397 5398 5399 5400 5401 5402 5404 5404 5404 5405 5406 5407 5407 5407 5408 5408 5408
5383 5383 5383 5383 5383 5382 5382 5382 5383 5383 5383 5384 5385 5385 5384 5382 5383 5383 5383 5383 5383 5383 5384 5384 5385 5386 5387 5387 5388 5389 5390 5390 5390 5390 5391 5392 5392 5392 5392 5393 5393 5393 5392 5392